Fort Wayne, IN

4:07 PM EDT on October 16, 2019 (GMT -0400)
Fort Wayne International

Weather History for KFWA - September, 2019

Change the Weather History Date:

Saturday, September 21, 2019

  Actual Average Record
Temperature  
Mean Temperature 76 °F 62 °F  
Max Temperature 87 °F 74 °F 93 °F (1908)
Min Temperature 65 °F 50 °F 32 °F (1897)
Degree Days  
Heating Degree Days 0 5  
Month to date heating degree days 10 48  
Since 1 July heating degree days 11 60  
Cooling Degree Days 11 2  
Month to date cooling degree days 103 71  
Year to date cooling degree days 941 788  
Growing Degree Days 26 (Base 50)    
Moisture  
Dew Point 64 °F    
Average Humidity 71    
Maximum Humidity 93    
Minimum Humidity 48    
Precipitation  
Precipitation 0.00 in 0.10 in 2.00 in (1992)
Month to date precipitation 0.82 1.97  
Year to date precipitation 29.09 28.81  
Sea Level Pressure  
Sea Level Pressure 30.14 in    
Wind  
Wind Speed 8 mph (SW)    
Max Wind Speed 21 mph    
Max Gust Speed 29 mph    
Visibility 9 miles    
Events      
T = Trace of Precipitation, MM = Missing Value Source: NWS Daily Summary

Daily Weather History Graph

Daily Weather History Graph

Search for Another Location

Airport or City:

Astronomy

Sep. 21, 2019 Rise Set
Actual Time 7:27 AM EDT 7:40 PM EDT
Civil Twilight 6:59 AM EDT 8:07 PM EDT
Nautical Twilight 6:27 AM EDT 8:39 PM EDT
Astronomical Twilight 5:54 AM EDT 9:12 PM EDT
Moon No Moon Rise 2:35 PM EDT (9/21)
Length of Visible Light 13h 07m
Length of Day
12h 12m
Waning Gibbous, 55% of the Moon is Illuminated
Sep 21
Waning Gibbous
Sep 21
Last Quarter
Sep 28
New
Oct 5
First Quarter
Oct 13
Full

Hourly Weather History & Observations

Time (EDT) Temp. Heat Index Dew Point Humidity Pressure Visibility Wind Dir Wind Speed Gust Speed Precip Events Conditions
12:54 AM 69.1 °F - 63.0 °F 81% 30.14 in 10.0 mi SW 3.5 mph - N/A   Mostly Cloudy
1:54 AM 68.0 °F - 63.0 °F 84% 30.14 in 10.0 mi Calm Calm - N/A   Partly Cloudy
2:54 AM 66.9 °F - 63.0 °F 87% 30.15 in 10.0 mi SSW 4.6 mph - N/A   Clear
3:54 AM 64.9 °F - 62.1 °F 90% 30.14 in 7.0 mi SW 3.5 mph - N/A   Clear
4:54 AM 66.0 °F - 63.0 °F 90% 30.15 in 7.0 mi Calm Calm - N/A   Scattered Clouds
5:54 AM 66.9 °F - 64.0 °F 90% 30.17 in 7.0 mi SSW 4.6 mph - N/A   Partly Cloudy
6:54 AM 66.9 °F - 64.9 °F 93% 30.18 in 6.0 mi SSW 4.6 mph - N/A   Overcast
7:54 AM 66.0 °F - 64.0 °F 93% 30.19 in 5.0 mi SSW 4.6 mph - N/A   Partly Cloudy
8:54 AM 70.0 °F - 66.9 °F 90% 30.19 in 8.0 mi SW 5.8 mph - N/A   Partly Cloudy
9:54 AM 75.9 °F - 68.0 °F 76% 30.19 in 10.0 mi SW 10.4 mph - N/A   Partly Cloudy
10:54 AM 80.1 °F 82.9 °F 69.1 °F 69% 30.19 in 10.0 mi SW 10.4 mph - N/A   Partly Cloudy
11:54 AM 82.0 °F 85.5 °F 69.1 °F 65% 30.18 in 10.0 mi WSW 8.1 mph - N/A   Mostly Cloudy
12:54 PM 84.0 °F 87.8 °F 69.1 °F 61% 30.17 in 10.0 mi WSW 13.8 mph 18.4 mph N/A   Mostly Cloudy
1:54 PM 84.0 °F 86.3 °F 66.0 °F 55% 30.15 in 10.0 mi WSW 12.7 mph 24.2 mph N/A   Mostly Cloudy
2:54 PM 86.0 °F 87.3 °F 64.0 °F 48% 30.14 in 10.0 mi SW 18.4 mph 25.3 mph N/A   Mostly Cloudy
3:54 PM 84.0 °F 85.8 °F 64.9 °F 53% 30.13 in 10.0 mi SW 13.8 mph 25.3 mph N/A   Mostly Cloudy
4:54 PM 82.9 °F 84.0 °F 63.0 °F 51% 30.12 in 10.0 mi WSW 12.7 mph 21.9 mph N/A   Mostly Cloudy
5:54 PM 82.9 °F 83.7 °F 62.1 °F 49% 30.11 in 10.0 mi SW 11.5 mph - N/A   Mostly Cloudy
6:54 PM 79.0 °F - 63.0 °F 58% 30.10 in 10.0 mi SW 5.8 mph - N/A   Mostly Cloudy
7:54 PM 75.9 °F - 63.0 °F 64% 30.10 in 10.0 mi South 5.8 mph - N/A   Mostly Cloudy
8:54 PM 75.9 °F - 63.0 °F 64% 30.11 in 10.0 mi South 6.9 mph - N/A   Overcast
9:54 PM 73.9 °F - 63.0 °F 68% 30.11 in 10.0 mi SSW 8.1 mph - N/A   Mostly Cloudy
10:54 PM 72.0 °F - 63.0 °F 73% 30.11 in 10.0 mi South 5.8 mph - N/A   Overcast
11:54 PM 72.0 °F - 63.0 °F 73% 30.10 in 10.0 mi South 6.9 mph - N/A   Overcast